Location: Newark
(52.2090°N, 4.1550°W)
Time: 08:38:49
(UTC+00:00)

Explorer 7 - Pass Details

Date: 24 September 2019
Orbit: 485 x 680 km, 50.3° (Epoch: 19 October)

Event Time Altitude Azimuth Distance (km) Brightness Sun altitude
Rises 21:11:20 0° 212° (SSW) 2,752 - -26.5°
Reaches altitude 10° 21:13:50 10° 199° (SSW) 1,896 - -26.8°
Maximum altitude 21:17:20 24° 145° (SE) 1,256 - -27.3°
Drops below altitude 10° 21:21:02 10° 91° (E) 2,004 - -27.7°
Sets 21:23:45 0° 78° (ENE) 2,949 - -28.0°
